Weather History for Pensacola, FL

Change the Weather History Date:

Tuesday, February 12, 2013

  Actual Average Record
Temperature  
Mean Temperature 66 °F 54 °F  
Max Temperature 72 °F 63 °F 77 °F (1950)
Min Temperature 59 °F 45 °F 10 °F (1982)
Degree Days  
Heating Degree Days 0 11  
Month to date heating degree days 63 145  
Since 1 July heating degree days 735 1156  
Cooling Degree Days 1 0  
Month to date cooling degree days 7 0  
Year to date cooling degree days 37 6  
Growing Degree Days 16 (Base 50)    
Moisture  
Dew Point 62 °F    
Average Humidity 87    
Maximum Humidity 93    
Minimum Humidity 81    
Precipitation  
Precipitation 0.22 in 0.19 in 2.35 in (1966)
Month to date precipitation 4.43 2.14  
Year to date precipitation 6.79 6.77  
Snow  
Snow 0.00 in 0.00 in - ()
Month to date snowfall 0.0 0.0  
Since 1 July snowfall 0.0 0.0  
Snow Depth 0.00 in    
Sea Level Pressure  
Sea Level Pressure 29.92 in    
Wind  
Wind Speed 11 mph (ESE)    
Max Wind Speed 24 mph    
Max Gust Speed 32 mph    
Visibility 7 miles    
Events Rain    
T = Trace of Precipitation, MM = Missing Value Source: NWS Daily Summary

Daily Weather History Graph

Daily Weather History Graph

Search for Another Location

Airport:

Trip Planner

Search our weather history database for the weather conditions in past years. The results will help you decide how hot, cold, wet, or windy it might be!

Date:

Astronomy

Feb. 12, 2013 Rise Set
Actual Time 6:31 AM CST 5:34 PM CST
Civil Twilight 6:06 AM CST 5:59 PM CST
Nautical Twilight 5:38 AM CST 6:27 PM CST
Astronomical Twilight 5:10 AM CST 6:55 PM CST
Moon 7:43 AM CST (2/12) 8:17 PM CST (2/12)
Length of Visible Light 11h 52m
Length of Day
11h 03m
Waxing Crescent, 7% of the Moon is Illuminated
Feb 12
Waxing Crescent
Feb 17
First Quarter
Feb 25
Full
Mar 4
Last Quarter
Mar 11
New

Hourly Weather History & Observations

Time (CST) Temp. Dew Point Humidity Pressure Visibility Wind Dir Wind Speed Gust Speed Precip Events Conditions
12:53 AM 61.0 °F 55.0 °F 81% 30.05 in 10.0 mi Variable 4.6 mph - N/A   Overcast
1:53 AM 60.1 °F 55.9 °F 86% 30.05 in 10.0 mi NNE 4.6 mph - N/A   Overcast
2:15 AM 60.8 °F 55.4 °F 82% 30.04 in 10.0 mi North 5.8 mph - N/A   Overcast
2:48 AM 60.8 °F 55.4 °F 82% 30.03 in 10.0 mi NNE 4.6 mph - N/A   Overcast
2:53 AM 60.1 °F 55.9 °F 86% 30.04 in 10.0 mi NNE 4.6 mph - N/A   Overcast
3:20 AM 59.0 °F 55.4 °F 88% 30.02 in 10.0 mi NNE 3.5 mph - N/A   Scattered Clouds
3:45 AM 59.0 °F 55.4 °F 88% 30.01 in 10.0 mi NNE 5.8 mph - N/A   Mostly Cloudy
3:53 AM 59.0 °F 55.9 °F 90% 30.03 in 10.0 mi NNE 8.1 mph - N/A   Mostly Cloudy
4:26 AM 59.0 °F 55.4 °F 88% 30.02 in 10.0 mi North 9.2 mph - N/A   Overcast
4:41 AM 59.0 °F 55.4 °F 88% 30.02 in 10.0 mi North 8.1 mph - N/A   Overcast
4:53 AM 59.0 °F 55.9 °F 90% 30.03 in 10.0 mi North 9.2 mph - N/A   Overcast
5:53 AM 59.0 °F 55.9 °F 90% 30.01 in 10.0 mi NE 6.9 mph - N/A   Overcast
6:53 AM 59.0 °F 55.9 °F 90% 30.01 in 10.0 mi Variable 4.6 mph - N/A   Overcast
7:53 AM 59.0 °F 57.0 °F 93% 30.03 in 2.5 mi Variable 5.8 mph - N/A   Overcast
8:33 AM 59.0 °F 57.2 °F 94% 30.01 in 3.0 mi Variable 6.9 mph - N/A   Overcast
8:53 AM 59.0 °F 57.0 °F 93% 30.02 in 5.0 mi NE 5.8 mph - N/A   Overcast
9:53 AM 62.1 °F 57.9 °F 86% 30.01 in 10.0 mi ENE 6.9 mph - N/A   Overcast
10:06 AM 62.6 °F 57.2 °F 82% 30.00 in 10.0 mi ENE 5.8 mph - N/A   Overcast
10:53 AM 64.0 °F 59.0 °F 84% 29.99 in 10.0 mi NE 4.6 mph - N/A   Overcast
11:53 AM 64.9 °F 60.1 °F 84% 29.94 in 10.0 mi ESE 6.9 mph - 0.00 in   Overcast
12:06 PM 66.2 °F 60.8 °F 83% 29.93 in 10.0 mi ESE 9.2 mph - 0.00 in Rain Light Rain
12:45 PM 66.2 °F 60.8 °F 83% 29.91 in 10.0 mi SE 10.4 mph - 0.00 in   Overcast
12:53 PM 66.0 °F 61.0 °F 84% 29.90 in 10.0 mi ESE 16.1 mph - 0.00 in   Overcast
1:53 PM 64.9 °F 62.1 °F 90% 29.84 in 10.0 mi ESE 15.0 mph - N/A   Overcast
2:39 PM 64.4 °F 62.6 °F 94% 29.79 in 6.0 mi ESE 15.0 mph - 0.00 in Rain Light Rain
2:53 PM 64.9 °F 63.0 °F 93% 29.80 in 5.0 mi SE 15.0 mph - 0.03 in Rain Light Rain
3:11 PM 66.2 °F 64.4 °F 94% 29.79 in 2.0 mi SSE 15.0 mph - 0.02 in Rain Rain
3:53 PM 69.1 °F 66.9 °F 93% 29.80 in 2.0 mi South 17.3 mph 23.0 mph 0.11 in Rain Light Rain
4:53 PM 71.1 °F 68.0 °F 90% 29.80 in 2.0 mi SSW 16.1 mph 25.3 mph 0.01 in   Overcast
5:00 PM 71.6 °F 69.8 °F 94% 29.79 in 7.0 mi SSW 17.3 mph 24.2 mph N/A   Overcast
5:07 PM 71.6 °F 69.8 °F 94% 29.79 in 4.0 mi SSW 15.0 mph 25.3 mph N/A   Overcast
5:31 PM 71.6 °F 69.8 °F 94% 29.79 in 1.0 mi SSW 19.6 mph 27.6 mph 0.06 in Rain Rain
5:53 PM 71.1 °F 69.1 °F 93% 29.80 in 1.0 mi SW 15.0 mph 31.1 mph 0.06 in Rain Light Rain
6:00 PM 71.6 °F 69.8 °F 94% 29.79 in 3.0 mi SW 19.6 mph 29.9 mph 0.00 in Rain Light Rain
6:53 PM 71.1 °F 69.1 °F 93% 29.81 in 3.0 mi SW 13.8 mph - 0.00 in Rain Light Rain
7:53 PM 71.1 °F 68.0 °F 90% 29.80 in 8.0 mi SW 15.0 mph 24.2 mph 0.00 in   Overcast
8:53 PM 72.0 °F 68.0 °F 87% 29.81 in 9.0 mi SW 17.3 mph 25.3 mph N/A   Overcast
9:43 PM 71.6 °F 68.0 °F 88% 29.80 in 8.0 mi WSW 16.1 mph 24.2 mph 0.01 in   Overcast
9:53 PM 71.1 °F 68.0 °F 90% 29.81 in 8.0 mi SW 15.0 mph - 0.01 in   Overcast
10:53 PM 72.0 °F 68.0 °F 87% 29.80 in 7.0 mi SW 15.0 mph 20.7 mph 0.00 in   Overcast
11:53 PM 71.1 °F 68.0 °F 90% 29.81 in 7.0 mi WSW 11.5 mph - N/A   Overcast